Simultaneous Nadir Overpasses (SNOs) Predictions

Prediction of SNOs between METOP-B and NOAA-19 Satellite Orbit:

Table of predicted SNOs for the next 14.0 days since TLE Epoch: 5/6/2014
Index Date (METOP-B) Time (METOP-B) Lat,Lon (METOP-B) SZA (METOP-B ) Date (NOAA-19) Time (NOAA-19) Lat,Lon (NOAA-19) SZA (NOAA-19 ) Distance(km) Time Diff (sec)
1 05/14/2014 02:44:27 73.94, 133.69 55.32 05/14/2014 02:43:14 73.96, 133.69 55.35 2.80 73
2 05/14/2014 03:35:09 -73.93, -59.00 124.70 05/14/2014 03:34:11 -73.94, -59.01 124.68 1.10 58
3 05/14/2014 04:25:49 73.92, 108.30 55.28 05/14/2014 04:25:17 73.93, 108.25 55.30 1.89 32
4 05/14/2014 05:16:31 -73.91, -84.38 124.73 05/14/2014 05:16:14 -73.91, -84.44 124.73 1.81 17
5 05/14/2014 06:07:11 73.90, 82.92 55.25 05/14/2014 06:07:20 73.90, 82.82 55.25 2.89 9
6
